Regional Weather Roundup
Issued by NWS Boston, MA

Home | Current Version | Previous Version | Text Only | Print | Product List | Glossary On
Versions: 1 2 3 4 5 6 7 8 9 10 11 12 13 14 15 16 17 18 19 20 21 22 23 24 25 26 27 28 29 30 31 32 33 34 35 36 37 38 39 40 41 42 43 44 45 46 47 48 49 50
000
ASUS41 KBOX 290410
RWRBOX

REGIONAL WEATHER ROUNDUP
NATIONAL WEATHER SERVICE TAUNTON MA
1200 AM EDT WED JUL 29 2015

NOTE:  "FAIR" INDICATES FEW OR NO CLOUDS BELOW 12,000 FEET WITH NO
SIGNIFICANT WEATHER AND/OR OBSTRUCTIONS TO VISIBILITY.  THE FOLLOWING
OBSERVATION LOCATIONS DO NOT REPORT PRESENT WEATHER...PROVINCETOWN...
SMITHFIELD...BLOCK ISLAND...KEENE...AND OXFORD.

MAZALL-290500-
EASTERN MASSACHUSETTS

CITY           SKY/WX    TMP DP  RH WIND       PRES   REMARKS
BOSTON         CLEAR     76  67  73 W6        29.96R
BEVERLY        CLEAR     70  67  90 CALM      29.95S
LAWRENCE       CLEAR     72  65  78 S5        29.97S
BEDFORD        CLEAR     69  66  90 CALM      29.95S
BLUE HILL        N/A     71  66  84 W10       29.97S
NORWOOD        CLEAR     65  65 100 E3        29.96S
MARSHFIELD     PTCLDY    70  70 100 W3        29.97S
PLYMOUTH       CLEAR     66  65  96 CALM      29.97S
TAUNTON        FOG       66  64  93 CALM      29.96R VSB 1/2
NEW BEDFORD    CLEAR     69  67  93 CALM      29.96R
$$

MAZALL-290500-
CAPE COD AND THE ISLANDS

CITY           SKY/WX    TMP DP  RH WIND       PRES   REMARKS
FALMOUTH       PTCLDY    68  68 100 SW3       29.97R
HYANNIS        PTCLDY    70  68  93 SW6       29.95S
CHATHAM        CLOUDY    71  71 100 SW5       29.97R FOG
PROVINCETOWN   PTCLDY    70  63  78 CALM      29.96S
NANTUCKET      FOG       70  69  97 SW6       29.96F VSB 1/4
MARTHAS VNYRD    N/A     68  67  96 CALM      29.97S VSB 1/4
$$

MAZALL-290500-
CENTRAL AND WESTERN MASSACHUSETTS

CITY           SKY/WX    TMP DP  RH WIND       PRES   REMARKS
WORCESTER      CLEAR     70  61  73 W7        30.01S
FITCHBURG      CLEAR     70  67  90 N5        29.98S
ORANGE         CLEAR     68  67  96 CALM      29.99S
SPRINGFIELD    PTCLDY    69  68  94 CALM      29.96S
WESTFIELD      PTCLDY    71  68  90 CALM      29.98R
NORTH ADAMS    CLEAR     66  63  90 CALM      30.01S
PITTSFIELD     CLEAR     66  63  90 CALM      30.02R
$$

RIZALL-290500-
RHODE ISLAND

CITY           SKY/WX    TMP DP  RH WIND       PRES   REMARKS
PROVIDENCE     PTCLDY    72  69  90 CALM      29.97S
NEWPORT        CLEAR     67  66  97 CALM      29.97S FOG
BLOCK ISLAND   CLEAR     72  72 100 SW6       29.98S
SMITHFIELD     CLEAR     66  64  94 CALM      29.98S
WESTERLY       CLEAR     71  68  90 CALM      29.97S FOG
$$

CTZALL-290500-
CONNECTICUT

CITY           SKY/WX    TMP DP  RH WIND       PRES   REMARKS
BRADLEY INTL   PTCLDY    74  68  81 CALM      29.97R
HARTFORD       PTCLDY    73  67  81 CALM      29.97R
BRIDGEPORT     CLEAR     78  72  81 W5        29.97S
DANBURY        CLEAR     70  65  84 SW3       30.01S
GROTON         CLEAR     72  70  93 CALM      29.96S
NEW HAVEN      PTCLDY    77  71  82 CALM      29.98S
CHESTER        NOT AVBL
MERIDEN        PTCLDY    72  66  81 CALM      29.98R
WILLIMANTIC    PTCLDY    73  69  87 NW3       29.98S
OXFORD         PTCLDY    72  64  78 CALM      30.02S
$$

MEZ002-015-021-024-NHZ003-005-008-011-012-014-VTZ005-008-290500-
NORTHERN NEW ENGLAND

CITY           SKY/WX    TMP DP  RH WIND       PRES   REMARKS
PORTLAND ME    PTCLDY    69  65  86 SW3       29.94S
BANGOR ME      FOG       63  62  97 S3        29.93S VSB 1/2
CONCORD NH     CLEAR     67  64  90 CALM      29.97S
MANCHESTER NH  CLEAR     76  67  73 W3        29.95S
NASHUA NH      NOT AVBL
PORTSMOUTH NH  PTCLDY    69  65  90 CALM      29.93S
JAFFREY NH     CLEAR     65  64  97 CALM      30.01F
KEENE NH       CLEAR     66  63  88 CALM      29.99S
BURLINGTON VT  CLEAR     72  67  84 CALM      29.96R
MT. WASHINGTON PTCLDY    54  48  82 NW25        N/A
$$

NYZ052-076-290500-
EASTERN NEW YORK

CITY           SKY/WX    TMP DP  RH WIND       PRES   REMARKS
ALBANY         PTCLDY    74  63  68 SW7       29.97S
NEW YORK CITY  PTCLDY    83  69  62 SW8       29.96S
$$

ANZALL-290500-
MARINE OBSERVATIONS

STATION/POSITION TIME  TEMP    WIND        PRES    VSBY  WAVE
                       AIR SEA DIR/SP/G                  HT/PER
                 (UTC) (F)     (DEG/KT/KT) (MB)    (MI)  (FT/S)
BOSTON BUOY      0350   72 70  210/  6/  6 1014.3F         1/ 9
BUZZARDS BAY     0300          190/  4/  5 1015.5F
NANTUCKET SOUND  0350   72 73  240/ 10/ 10 1014.2F         1
MASS BAY-STELLWA 0304   70 67  180/  4/  6   N/A    1 7/8  2/ 8
ISLE OF SHOALS   0300   71     170/  6/  7 1013.6S
S OF BLOCK IS    0308      72                N/A           2/10
$$

......................KEY.........................
  SKY/WX - SKY CONDITION/PRESENT WEATHER
  TMP    - TEMPERATURE IN FAHRENHEIT
  DWPT   - DEWPOINT IN FAHRENHEIT
  RH     - RELATIVE HUMIDITY IN PERCENT
  WIND   - DIRECTION AND SPEED IN MPH
  PRES   - MEAN SEA LEVEL PRESSURE IN INCHES OF HG
  WCI    - WIND CHILL INDEX
  VSB    - VISIBILITY IN MILES
  HX     - HEAT INDEX
  TC     - TEMPERATURE IN CELSIUS
  VRB    - VARIABLE WIND DIRECTION
  N/A    - NOT AVAILABLE


USA.gov is the U.S. government's official web portal to all federal, state and local government web resources and services.